Date String (YYYY-MM-DD hh:mm:ss) UTC,Instrument flags,absolute air pressure of the measurement (hPa),sample flow rate (lpm),inlet stack bypass flow (lpm),air temperature of the measurement (°C),ambient temperature measured by the external sensor (°C),aerosol sample conditioner tube jacket temperature (°C),OPC LED temperature (°C),internal box temperature (°C),relative humidity of the measurement (%),span deviation,mass concentration of particles derived from Lorenz-Mie calculation of OPC scattering (μg/m³),mass concentration of particles derived from Lorenz-Mie calculation of OPC scattering (μg/m³),mass concentration of particles derived from Lorenz-Mie calculation of OPC scattering (μg/m³)
DateTimeUTC,F1_M11,P_M11,Q1_M11,Q2_M11,T1_M11,T2_M11,T3_M11,T4_M11,T5_M11,U1_M11,ZSPAN_M11,X0_M11,X2_M11,X1_M11
2024-03-12 19:00:00,SystemResetWarning,0823.6,4.98,000.00,020.9,020.3,000.0,029.3,022.7,13.5,0000.0,0011.58,0003.01,0001.39
2024-03-12 19:01:00,SystemResetWarning,0823.6,4.99,000.00,020.9,020.3,000.0,029.3,022.7,13.7,0000.0,0012.31,0003.02,0001.39
2024-03-12 19:02:00,SystemResetWarning,0823.6,5.01,000.00,020.9,020.3,000.0,029.3,022.7,13.4,0000.0,0012.53,0002.91,0001.37
2024-03-12 19:03:00,SystemResetWarning,0823.7,5.00,000.00,020.9,020.3,000.0,029.3,022.7,13.2,0000.0,0012.69,0002.86,0001.38
2024-03-12 19:04:00,SystemResetWarning,0823.7,4.99,000.00,020.9,020.3,000.0,029.3,022.7,13.4,0000.0,0012.26,0002.82,0001.39
2024-03-12 19:05:00,SystemResetWarning,0823.7,5.01,000.00,020.9,020.3,000.0,029.3,022.7,13.4,0000.0,0012.18,0002.80,0001.38
2024-03-12 19:06:00,SystemResetWarning,0823.6,5.01,000.00,021.0,020.3,000.0,029.3,022.7,13.6,0000.0,0011.63,0002.75,0001.37
2024-03-12 19:07:00,SystemResetWarning,0823.6,5.00,000.00,021.0,020.3,000.0,029.3,022.7,13.5,0000.0,0012.01,0002.77,0001.38
2024-03-12 19:08:00,SystemResetWarning,0823.6,4.99,000.00,021.0,020.3,000.0,029.3,022.7,13.4,0000.0,0012.12,0002.74,0001.38
2024-03-12 19:09:00,SystemResetWarning,0823.5,5.00,000.00,021.0,020.3,000.0,029.4,022.7,13.5,0000.0,0012.16,0002.72,0001.37
2024-03-12 19:10:00,SystemResetWarning,0823.5,5.01,000.00,021.0,020.3,000.0,029.4,022.8,13.7,0000.0,0011.87,0002.76,0001.37
2024-03-12 19:11:00,SystemResetWarning,0823.5,5.01,000.00,021.0,020.4,000.0,029.4,022.8,13.8,0000.0,0011.38,0002.76,0001.38
2024-03-12 19:12:00,SystemResetWarning,0823.5,5.00,000.00,021.0,020.4,000.0,029.4,022.8,13.7,0000.0,0010.51,0002.71,0001.39
2024-03-12 19:13:00,SystemResetWarning,0823.5,4.99,000.00,021.0,020.4,000.0,029.4,022.8,13.6,0000.0,0010.33,0002.81,0001.40
2024-03-12 19:14:00,SystemResetWarning,0823.4,5.01,000.00,021.0,020.4,000.0,029.4,022.8,13.4,0000.0,0010.40,0002.91,0001.40
2024-03-12 19:15:00,SystemResetWarning,0823.4,5.01,000.00,021.0,020.4,000.0,029.4,022.8,13.8,0000.0,0010.20,0002.94,0001.40
2024-03-12 19:16:00,SystemResetWarning,0823.4,5.00,000.00,021.0,020.4,000.0,029.4,022.8,14.1,0000.0,0010.27,0003.00,0001.41
2024-03-12 19:17:00,SystemResetWarning,0823.4,4.99,000.00,021.0,020.4,000.0,029.4,022.8,14.2,0000.0,0010.64,0003.03,0001.42
2024-03-12 19:18:00,SystemResetWarning,0823.4,4.99,000.00,021.0,020.4,000.0,029.4,022.8,14.3,0000.0,0010.24,0002.97,0001.41
2024-03-12 19:19:00,SystemResetWarning,0823.3,5.00,000.00,021.0,020.4,000.0,029.4,022.8,14.1,0000.0,0011.60,0002.98,0001.40
2024-03-12 19:20:00,SystemResetWarning,0823.3,5.01,000.00,021.0,020.4,000.0,029.4,022.8,13.7,0000.0,0012.04,0002.99,0001.41
2024-03-12 19:21:00,SystemResetWarning,0823.3,5.00,000.00,021.0,020.4,000.0,029.4,022.8,13.9,0000.0,0012.87,0002.99,0001.41
2024-03-12 19:22:00,SystemResetWarning,0823.3,5.00,000.00,021.0,020.4,000.0,029.4,022.8,14.2,0000.0,0012.96,0003.07,0001.40
2024-03-12 19:23:00,SystemResetWarning,0823.3,5.00,000.00,021.0,020.4,000.0,029.4,022.8,13.9,0000.0,0012.74,0003.09,0001.39
2024-03-12 19:24:00,SystemResetWarning,0823.3,5.00,000.00,021.1,020.4,000.0,029.4,022.8,13.7,0000.0,0012.36,0003.02,0001.38
2024-03-12 19:25:00,SystemResetWarning,0823.3,5.00,000.00,021.1,020.4,000.0,029.4,022.8,13.7,0000.0,0011.83,0002.97,0001.38
2024-03-12 19:26:00,SystemResetWarning,0823.3,4.99,000.00,021.1,020.4,000.0,029.4,022.8,13.6,0000.0,0012.61,0003.06,0001.38
2024-03-12 19:27:00,SystemResetWarning,0823.2,5.00,000.00,021.1,020.4,000.0,029.4,022.8,13.8,0000.0,0012.97,0003.03,0001.38
2024-03-12 19:28:00,SystemResetWarning,0823.1,5.00,000.00,021.1,020.5,000.0,029.5,022.9,13.6,0000.0,0013.16,0003.06,0001.39
2024-03-12 19:29:00,SystemResetWarning,0823.1,5.00,000.00,021.1,020.5,000.0,029.5,022.9,13.5,0000.0,0013.49,0003.12,0001.42
2024-03-12 19:30:00,SystemResetWarning,0823.1,5.00,000.00,021.1,020.5,000.0,029.5,022.9,13.4,0000.0,0012.09,0003.14,0001.45
2024-03-12 19:31:00,SystemResetWarning,0823.0,5.00,000.00,021.1,020.5,000.0,029.5,022.9,13.6,0000.0,0011.46,0003.19,0001.50
2024-03-12 19:32:00,SystemResetWarning,0823.0,5.00,000.00,021.1,020.5,000.0,029.5,022.9,13.5,0000.0,0010.29,0003.23,0001.55
2024-03-12 19:33:00,SystemResetWarning,0823.0,5.00,000.00,021.1,020.5,000.0,029.5,022.9,13.5,0000.0,0010.21,0003.24,0001.65
2024-03-12 19:34:00,SystemResetWarning,0823.0,5.00,000.00,021.1,020.5,000.0,029.5,022.9,13.4,0000.0,0010.49,0003.33,0001.75
2024-03-12 19:35:00,SystemResetWarning,0822.9,5.00,000.00,021.1,020.5,000.0,029.5,022.9,13.5,0000.0,0011.91,0003.49,0001.86
2024-03-12 19:36:00,SystemResetWarning,0822.9,5.00,000.00,021.1,020.5,000.0,029.5,022.9,13.5,0000.0,0012.37,0003.60,0001.94
2024-03-12 19:37:00,SystemResetWarning,0822.9,5.00,000.00,021.1,020.5,000.0,029.5,022.9,13.5,0000.0,0011.36,0003.58,0001.99
2024-03-12 19:38:00,SystemResetWarning,0823.1,5.00,000.00,021.1,020.5,000.0,029.5,022.9,13.4,0000.0,0010.96,0003.61,0002.02
2024-03-12 19:39:00,SystemResetWarning,0822.9,5.00,000.00,021.1,020.5,000.0,029.5,022.9,13.3,0000.0,0011.18,0003.63,0002.05
2024-03-12 19:40:00,SystemResetWarning,0823.0,5.00,000.00,021.1,020.5,000.0,029.5,022.9,13.5,0000.0,0011.51,0003.65,0002.06
2024-03-12 19:41:00,SystemResetWarning,0823.0,5.00,000.00,021.1,020.5,000.0,029.5,022.9,13.5,0000.0,0012.07,0003.69,0002.07
2024-03-12 19:42:00,SystemResetWarning,0822.9,5.00,000.00,021.1,020.5,000.0,029.5,022.9,13.5,0000.0,0012.30,0003.71,0002.06
2024-03-12 19:43:00,SystemResetWarning,0823.0,5.00,000.00,021.1,020.5,000.0,029.5,022.9,13.4,0000.0,0012.51,0003.68,0002.04
2024-03-12 19:44:00,SystemResetWarning,0822.9,5.00,000.00,021.1,020.5,000.0,029.5,022.9,13.0,0000.0,0013.10,0003.67,0001.97
2024-03-12 19:45:00,SystemResetWarning,0823.1,5.00,000.00,021.2,020.5,000.0,029.5,022.9,13.2,0000.0,0012.87,0003.59,0001.89
2024-03-12 19:46:00,SystemResetWarning,0823.1,5.00,000.00,021.2,020.5,000.0,029.5,023.0,13.0,0000.0,0011.79,0003.46,0001.82
2024-03-12 19:47:00,SystemResetWarning,0823.1,5.00,000.00,021.2,020.5,000.0,029.5,023.0,13.3,0000.0,0011.18,0003.34,0001.74
2024-03-12 19:48:00,SystemResetWarning,0822.8,5.00,000.00,021.2,020.6,000.0,029.6,023.0,13.0,0000.0,0011.44,0003.32,0001.72
2024-03-12 19:49:00,SystemResetWarning,0822.8,4.99,000.00,021.2,020.6,000.0,029.6,023.0,12.6,0000.0,0011.77,0003.33,0001.70
2024-03-12 19:50:00,SystemResetWarning,0822.8,5.00,000.00,021.2,020.6,000.0,029.6,023.0,12.5,0000.0,0012.24,0003.33,0001.69
2024-03-12 19:51:00,SystemResetWarning,0822.9,5.00,000.00,021.2,020.6,000.0,029.6,023.0,12.6,0000.0,0011.80,0003.32,0001.69
2024-03-12 19:52:00,SystemResetWarning,0823.1,5.00,000.00,021.2,020.6,000.0,029.6,023.0,12.5,0000.0,0011.70,0003.27,0001.66
2024-03-12 19:53:00,SystemResetWarning,0822.7,5.01,000.00,021.2,020.6,000.0,029.6,023.0,12.6,0000.0,0011.48,0003.18,0001.63
2024-03-12 19:54:00,SystemResetWarning,0822.7,5.00,000.00,021.2,020.6,000.0,029.6,023.0,12.4,0000.0,0011.87,0003.20,0001.61
2024-03-12 19:55:00,SystemResetWarning,0822.8,5.00,000.00,021.2,020.6,000.0,029.6,023.0,12.4,0000.0,0013.01,0003.18,0001.58
2024-03-12 19:56:00,SystemResetWarning,0822.8,5.00,000.00,021.2,020.6,000.0,029.6,023.0,12.5,0000.0,0013.85,0003.20,0001.58
2024-03-12 19:57:00,SystemResetWarning,0822.9,5.00,000.00,021.2,020.6,000.0,029.6,023.0,12.6,0000.0,0014.34,0003.21,0001.58
2024-03-12 19:58:00,SystemResetWarning,0822.8,5.00,000.00,021.3,020.7,000.0,029.6,023.1,12.6,0000.0,0014.82,0003.28,0001.58
2024-03-12 19:59:00,SystemResetWarning,0822.7,5.00,000.00,021.3,020.7,000.0,029.6,023.1,12.4,0000.0,0015.28,0003.29,0001.58
